Regional Weather Roundup
Issued by NWS

Home | Current Version | Previous Version | Text Only | Print | Product List | Glossary Off
Versions: 1 2 3 4 5 6 7 8 9 10 11 12 13 14 15 16 17 18 19 20 21 22 23 24 25 26 27

000
ASUS43 KDMX 200207
RWRIA

WEATHER ROUNDUP FOR IOWA
NATIONAL WEATHER SERVICE DES MOINES IA
900 PM CDT SAT APR 19 2014

NOTE: "FAIR" INDICATES FEW OR NO CLOUDS BELOW 12,000 FEET WITH NO
SIGNIFICANT WEATHER AND/OR OBSTRUCTIONS TO VISIBILITY.

* - THESE STATIONS ARE NOT NWS STATIONS...THUS NOT UNDER NWS
QUALITY CONTROL.  THEY ALSO DO NOT REPORT WEATHER SUCH
AS PRECIPITATION OR FOG.

IAZ001>003-012>014-020>022-031>034-043>046-200300-
   NORTHWEST IOWA

CITY           SKY/WX    TMP DP  RH WIND       PRES   REMARKS
CARROLL *      CLOUDY    68  43  40 S10       30.00S
CHEROKEE *     CLOUDY    64  46  52 CALM      29.99R
DENISON *      CLOUDY    72  43  35 S15       29.98R
LE MARS *      CLOUDY    61  48  63 CALM      29.99R
ORANGE CITY *  CLEAR     66  37  34 NE8       29.99S
SHELDON *      CLOUDY    63  43  48 NE9       29.98S
SIOUX CITY     CLOUDY    65  48  54 CALM      29.97R
SPENCER        CLOUDY    64  48  56 CALM      30.00R
STORM LAKE *   CLOUDY    66  45  45 S8        30.00R
$$

IAZ055>058-069>071-079>083-090>094-200300-
   SOUTHWEST IOWA

CITY           SKY/WX    TMP DP  RH WIND       PRES   REMARKS
ATLANTIC *     CLOUDY    72  45  37 S12G17    30.01R
AUDUBON *      PTCLDY    70  37  30 S9        30.03R
CLARINDA *     PTCLDY    66  45  45 S7        30.05R
COUNCIL BLFS * CLOUDY    72  46  40 S16G23    29.98S
CRESTON *      CLEAR     64  45  48 S12       30.07R
HARLAN  *      CLOUDY    72  45  37 S14       30.03S
LAMONI         CLEAR     66  43  43 S7        30.08R
RED OAK *      CLOUDY    70  45  40 S13       30.02R
SHENANDOAH *   CLEAR     70  45  40 S14       30.02S
$$

IAZ047>049-059>061-072>074-084-200300-
   CENTRAL IOWA

CITY           SKY/WX    TMP DP  RH WIND       PRES   REMARKS
AMES           CLOUDY    68  43  40 S9        30.05R
ANKENY *       MOCLDY    68  45  42 S8        30.06R
CHARITON *     CLEAR     63  45  51 S8        30.09R
DES MOINES     PTCLDY    67  43  41 S9        30.06R
GRINNELL*      PTCLDY    61  45  55 SE7       30.09R
KNOXVILLE *    CLEAR     66  43  42 S8        30.08R
MARSHALLTOWN   CLOUDY    66  45  46 S10       30.06R
NEWTON *       PTCLDY    63  43  48 S10       30.08R
PELLA *        PTCLDY    66  45  45 SE7       30.09R
PERRY *        CLOUDY    68  39  34 S10       30.03S
$$

IAZ004>006-015-016-023>025-035-036-200300-
   NORTH CENTRAL IOWA

CITY           SKY/WX    TMP DP  RH WIND       PRES   REMARKS
ALGONA *       CLOUDY    68  43  40 S12       30.01R
CLARION *      CLOUDY    66  45  45 S14       30.02S
ESTHERVILLE    CLOUDY    60  50  69 N10       30.00R
FORT DODGE *   CLOUDY    70  43  37 S12G18    30.02S
MASON CITY     CLOUDY    63  46  54 S8        30.04R
FOREST CITY *  CLOUDY    63  45  51 S8        30.01S
IOWA FALLS *   CLOUDY    66  45  45 S9        30.06R
$$

IAZ007>011-017>019-026>030-037>042-050>054-066-200300-
   NORTHEAST IOWA

CITY           SKY/WX    TMP DP  RH WIND       PRES   REMARKS
CEDAR RAPIDS   MOCLDY    63  41  44 S9        30.10R
CHARLES CITY * CLOUDY    64  45  48 S14       30.06S
CLINTON *      MOCLDY    57  34  41 SE8       30.18R
DECORAH *      CLOUDY    64  41  42 S12       30.08R
DUBUQUE        CLOUDY    57  38  48 S12       30.14R
MONTICELLO *   CLEAR     61  41  48 SE8       30.12S
OELWEIN *      CLEAR    N/A N/A N/A S10       30.10R
WATERLOO       MOCLDY    66  44  45 S12       30.07R
$$

IAZ064-065-067-068-078-200300-
   EAST CENTRAL IOWA

CITY           SKY/WX    TMP DP  RH WIND       PRES   REMARKS
DAVENPORT      PTCLDY    61  34  36 S9        30.15R
IOWA CITY      MOCLDY    62  42  47 SE9       30.13R
MT. PLEASANT * PTCLDY    63  37  39 SE7       30.14R
MUSCATINE *    CLEAR     64  39  39 SE5       30.14R
QUAD CITIES    PTCLDY    57  35  43 SE5       30.14R
$$

IAZ062-063-075>077-085>089-095>099-200300-
   SOUTHEAST IOWA

CITY           SKY/WX    TMP DP  RH WIND       PRES   REMARKS
BURLINGTON     PTCLDY    63  37  38 S6        30.14R
FAIRFIELD *    CLEAR     59  41  51 SE7       30.12S
FORT MADISON * CLEAR     64  37  36 SE6       30.15R
KEOKUK *       CLEAR     68  34  28 S8        30.13R
OSKALOOSA *      N/A     61  43  51 SE10      30.10S
CENTERVILLE *  CLEAR     63  41  45 SE7       30.11S
OTTUMWA        PTCLDY    63  41  44 S8        30.10R
WASHINGTON *   CLEAR     63  41  45 S8        30.13R
$$

ABBREVIATIONS USED IN REMARKS
   TC - TEMPERATURES IN CELSIUS
  WCI - WIND CHILL INDEX
   HX - HEAT INDEX
  VSB - VISIBILITY
$$




USA.gov is the U.S. government's official web portal to all federal, state and local government web resources and services.